Location: Nelson
(41.2830°S, 173.2830°E)
Time: 10:07:08
(UTC+13:00)

Meteor 2-6 Rocket - Pass Details

Date: 24 January 2019
Orbit: 806 x 914 km, 81.3° (Epoch: 20 October)

Event Time Altitude Azimuth Distance (km) Brightness Sun altitude
Exits shadow 23:38:47 49° 74° (ENE) 1,043 4.3 -23.4°
Maximum altitude 23:39:07 50° 86° (E) 1,034 4.4 -23.4°
Drops below altitude 10° 23:44:23 10° 160° (SSE) 2,430 7.1 -23.9°
Sets 23:46:51 0° 164° (SSE) 3,377 8.0 -24.2°
